Location: Santa Barbara
(34.4500°N, 119.7700°W)
Time: 11:48:34
(UTC-07:00)

Envisat - Visible Passes

Search period start: 23 October 2019 00:00
Search period end: 02 November 2019 00:00
Orbit: 764 x 766 km, 98.1° (Epoch: 23 October)

Date Brightness Start Highest point End Pass type
(mag) Time Alt. Az. Time Alt. Az. Time Alt. Az.
23 Oct 3.3 18:38:29 10° SE 18:43:16 43° ENE 18:48:04 10° N visible
23 Oct 5.7 20:19:04 10° SW 20:22:26 18° W 20:25:49 10° NW visible
24 Oct 4.3 19:40:41 10° S 19:45:28 42° W 19:50:17 10° NNW visible
25 Oct 2.9 19:03:37 10° SSE 19:08:40 80° ENE 19:13:46 10° N visible
26 Oct 5.4 20:07:07 10° SSW 20:11:05 23° W 20:15:04 10° NW visible
27 Oct 6.2 06:41:11 10° ENE 06:44:07 15° E 06:47:03 10° SE visible
27 Oct 3.7 19:29:13 10° S 19:34:10 55° W 19:39:10 10° NNW visible
28 Oct 3.0 18:52:27 10° SSE 18:57:26 62° ENE 19:02:26 10° N visible
28 Oct 6.2 20:34:52 10° WSW 20:36:48 12° W 20:38:45 10° WNW visible
29 Oct 4.9 19:55:22 10° SSW 19:59:45 29° W 20:04:11 10° NW visible
30 Oct 6.6 06:31:06 10° ENE 06:32:45 11° E 06:34:25 10° ESE visible
30 Oct 3.3 19:17:51 10° S 19:22:54 72° WSW 19:27:58 10° NNW visible
31 Oct 3.2 18:41:22 10° SE 18:46:12 48° ENE 18:51:05 10° N visible
31 Oct 5.9 20:22:22 10° SW 20:25:26 16° W 20:28:31 10° NW visible
01 Nov 4.5 19:43:45 10° SSW 19:48:26 38° W 19:53:10 10° NNW visible
